User: anonymous   Login
Location: ????????
(54.8751°N, 38.5756°E)
Time: 01:12:58
(UTC+00:00)
Language:

Cosmos 44 Rocket - Orbit

View from above orbital plane
View from above orbital plane
View from above satellite
View from above satellite

Ground track
Ground track

The orbit data is extracted from the following two-line orbital elements,

1 00877U 64053B   24174.57572779  .00000405  00000-0  10542-3 0  9991
2 00877  65.0784   2.5941 0068584 198.4856 161.3751 14.60370655175472
Epoch (UTC): 22 June 2024 13:49:02
Eccentricity: 0.0068584
inclination: 65.0784°
perigee height: 643 km
apogee height: 740 km
right ascension of ascending node: 2.5941°
argument of perigee: 198.4856°
revolutions per day: 14.60370655
mean anomaly at epoch: 161.3751°
orbit number at epoch: 17547

The dashed part of the orbit path shows where the satellite is in the earth's shadow,  

DLR